Regional Weather Roundup
Issued by NWS

Home | Current Version | Previous Version | Text Only | Print | Product List | Glossary Off
Versions: 1 2 3 4 5 6 7 8 9 10 11 12 13 14 15 16 17 18 19 20 21 22 23 24 25 26 27 28 29 30 31 32 33 34 35 36 37 38 39 40 41 42 43 44 45 46 47 48 49 50

000
ASUS43 KLSX 170359
RWRMO

WEATHER SUMMARY FOR MISSOURI
NATIONAL WEATHER SERVICE SPRINGFIELD MO
1100 PM CDT WED APR 16 2014

NOTE: "FAIR" INDICATES FEW OR NO CLOUDS BELOW 12,000 FEET WITH NO
       SIGNIFICANT WEATHER AND/OR OBSTRUCTIONS TO VISIBILITY.
       CURRENT SKY AND/OR WEATHER CONDITIONS ARE NOT AVAILABLE FOR
       CHILLICOTHE AND FARMINGTON.

MOZ001>031-035>038-043-044-053-054-170500-
...NORTHERN AND WESTERN MISSOURI...

CITY           SKY/WX    TMP DP  RH WIND       PRES   REMARKS
KANSAS CTY INT CLOUDY    48  32  53 NW20      30.04R
KANSAS C DTWN  PTCLDY    55  36  48 NW15      30.01R
LEE`S SUMMIT   PTCLDY    55  31  39 W8        30.01R
ST JOSEPH      PTCLDY    43  32  65 NW17      30.07R
KIRKSVILLE     MOCLDY    46  31  55 S10       29.98R

$$
MOZ066>068-077>081-088>096-101>105-170500-
...SOUTHWEST MISSOURI...

CITY           SKY/WX    TMP DP  RH WIND       PRES   REMARKS
SPRINGFIELD    CLEAR     50  29  44 S14       30.06S
JOPLIN         CLEAR     52  30  43 S12       30.04R

$$
MOZ032>034-039>042-045>050-055>058-069>072-170500-
...CENTRAL MISSOURI...

CITY           SKY/WX    TMP DP  RH WIND       PRES   REMARKS
COLUMBIA       CLEAR     50  28  42 S17       30.04R
JEFFERSON CITY CLEAR     51  28  41 SE10      30.05S
ROLLA          CLEAR     47  28  47 S16G22    30.08S
SEDALIA        CLEAR     53  30  41 S15       30.01R
OSAGE BEACH    CLEAR     50  27  40 S13       30.07S

$$
MOZ051-052-059>065-170500-
...EAST CENTRAL MISSOURI...

CITY           SKY/WX    TMP DP  RH WIND       PRES   REMARKS
ST LOUIS INTL  PTCLDY    51  27  39 S9        30.14S
SPIRIT OF STL  CLEAR     49  25  39 S7        30.12S
ST CHARLES     CLEAR     46  31  55 SE10      30.12S

$$
MOZ072>076-082>087-097>100-106>115-170500-
...SOUTH CENTRAL AND SOUTHEAST MISSOURI...

CITY           SKY/WX    TMP DP  RH WIND       PRES   REMARKS
CAPE GIRARDEAU CLEAR     44  37  76 S3        30.15S
FARMINGTON     CLEAR     45  28  53 CALM      30.16R
POPLAR BLUFF   CLEAR     47  34  60 SE5       30.13S
WEST PLAINS    CLEAR     44  29  55 CALM      30.14R

$$



USA.gov is the U.S. government's official web portal to all federal, state and local government web resources and services.